This is the latest recevied weather packets stored in our database for station/object N9CQS-15. If no packets are shown the sender has not sent any weather packets the latest 10 day(s).
| Time | Temp. | Humidity | Pressure | Rain* | Wind** | Luminosity | Snow |
|---|---|---|---|---|---|---|---|
| 1777469342 | 12.22° C | 73% | 1014.3 hPa | 0 mm | - | - | - |
| 1777468742 | 11.67° C | 74% | 1014.3 hPa | 0 mm | - | - | - |
| 1777468142 | 11.67° C | 75% | 1014.3 hPa | 0 mm | - | - | - |
| 1777467542 | 11.67° C | 76% | 1014.3 hPa | 0 mm | - | - | - |
| 1777466942 | 11.11° C | 78% | 1014.2 hPa | 0 mm | - | - | - |
| 1777466342 | 11.11° C | 81% | 1014.3 hPa | 0 mm | - | - | - |
| 1777465742 | 11.11° C | 84% | 1014.1 hPa | 0 mm | - | - | - |
| 1777465142 | 10.56° C | 86% | 1014.1 hPa | 0 mm | - | - | - |
| 1777464542 | 10.56° C | 88% | 1013.9 hPa | 0 mm | - | - | - |
| 1777463941 | 10.56° C | 89% | 1013.9 hPa | 0 mm | - | - | - |
| 1777463341 | 10.56° C | 92% | 1013.8 hPa | 0 mm | - | - | - |
| 1777462742 | 10.56° C | 92% | 1013.8 hPa | 0 mm | - | - | - |
| 1777462142 | 10.56° C | 92% | 1013.6 hPa | 0 mm | - | - | - |
| 1777461542 | 10.56° C | 91% | 1013.5 hPa | 0 mm | - | - | - |
| 1777460941 | 10.56° C | 91% | 1013.4 hPa | 0 mm | - | - | - |
| 1777460342 | 10.56° C | 91% | 1013.4 hPa | 0 mm | - | - | - |
| 1777459741 | 10.56° C | 91% | 1013.2 hPa | 0 mm | - | - | - |
| 1777459142 | 10.56° C | 92% | 1013.1 hPa | 0 mm | - | - | - |
| 1777458542 | 11.11° C | 92% | 1013.1 hPa | 0 mm | - | - | - |
| 1777457942 | 11.11° C | 92% | 1013.2 hPa | 0 mm | - | - | - |
| 1777457341 | 11.11° C | 92% | 1013.2 hPa | 0 mm | - | - | - |
| 1777456742 | 11.11° C | 92% | 1013.2 hPa | 0 mm | - | - | - |
| 1777456142 | 11.67° C | 92% | 1013.2 hPa | 0 mm | - | - | - |
| 1777455541 | 11.67° C | 92% | 1013.2 hPa | 0 mm | - | - | - |
| 1777454941 | 11.67° C | 92% | 1013.3 hPa | 0 mm | - | - | - |
* Rain latest hour (hover to see other rain measurements)
** Current wind speed in m/s (hover to see current wind gust speed)